Location: Gleizolles
(44.4833°N, 6.7667°E)
Time: 15:13:53
(UTC+00:00)

Vanguard 1 - Pass Details

Date: 01 July 2024
Orbit: 650 x 3826 km, 34.3° (Epoch: 22 July)

Event Time Altitude Azimuth Distance (km) Brightness Sun altitude
Rises 13:27:23 0° 268° (W) 4,517 13.8 58.9°
Reaches altitude 10° 13:31:54 10° 252° (WSW) 3,007 13.2 58.2°
Maximum altitude 13:36:19 18° 212° (SSW) 2,022 12.5 57.5°
Drops below altitude 10° 13:39:47 10° 168° (SSE) 2,258 12.2 57.0°
Sets 13:42:33 0° 148° (SSE) 3,020 12.6 56.6°
